Laredo, TX

7:48 PM CDT on September 19, 2017 (GMT -0500)
Laredo International

Weather History for KLRD - June, 2013

Change the Weather History Date:

Sunday, June 23, 2013

  Actual Average Record
Temperature  
Mean Temperature 90 °F 88 °F  
Max Temperature 102 °F 99 °F 109 °F (2017)
Min Temperature 77 °F 77 °F 64 °F (1908)
Degree Days  
Heating Degree Days 0 0  
Month to date heating degree days 0 0  
Since 1 June heating degree days 0 0  
Since 1 July heating degree days 517 926  
Cooling Degree Days 25 23  
Month to date cooling degree days 523 502  
Year to date cooling degree days 1724 1645  
Since 1 June cooling degree days 523 502  
Growing Degree Days 38 (Base 50)    
Moisture  
Dew Point 67 °F    
Average Humidity 52    
Maximum Humidity 82    
Minimum Humidity 29    
Precipitation  
Precipitation 0.00 in 0.08 in 0.39 in (1960)
Month to date precipitation 2.01 1.68  
Year to date precipitation 9.09 8.55  
Sea Level Pressure  
Sea Level Pressure 29.88 in    
Wind  
Wind Speed 17 mph (SE)    
Max Wind Speed 25 mph    
Max Gust Speed 31 mph    
Visibility 10 miles    
Events      
T = Trace of Precipitation, MM = Missing Value Source: NWS Daily Summary

Daily Weather History Graph

Daily Weather History Graph

Search for Another Location

Airport or City:

Trip Planner

Search our weather history database for the weather conditions in past years. The results will help you decide how hot, cold, wet, or windy it might be!

Date:

Astronomy

Jun. 23, 2013 Rise Set
Actual Time 6:43 AM CDT 8:36 PM CDT
Civil Twilight 6:17 AM CDT 9:03 PM CDT
Nautical Twilight 5:44 AM CDT 9:35 PM CDT
Astronomical Twilight 5:10 AM CDT 10:09 PM CDT
Moon 8:57 PM CDT (6/23) 6:57 AM CDT (6/23)
Length of Visible Light 14h 46m
Length of Day
13h 52m
Full, 100% of the Moon is Illuminated
Jun 23
Full
Jun 29
Last Quarter
Jul 8
New
Jul 15
First Quarter
Jul 22
Full

Hourly Weather History & Observations

Time (CDT) Temp. Heat Index Dew Point Humidity Pressure Visibility Wind Dir Wind Speed Gust Speed Precip Events Conditions
12:56 AM 82.9 °F 84.6 °F 64.9 °F 54% 29.93 in 10.0 mi SE 16.1 mph 23.0 mph N/A   Clear
1:56 AM 81.9 °F 83.9 °F 65.8 °F 58% 29.92 in 10.0 mi SE 13.8 mph - N/A   Clear
2:56 AM 79.9 °F - 66.9 °F 64% 29.91 in 10.0 mi SE 12.7 mph - N/A   Clear
3:56 AM 79.0 °F - 68.9 °F 71% 29.90 in 9.0 mi SE 10.4 mph - N/A   Clear
4:56 AM 77.9 °F - 70.9 °F 79% 29.90 in 9.0 mi SE 10.4 mph - N/A   Clear
5:56 AM 77.9 °F - 70.9 °F 79% 29.90 in 9.0 mi SE 9.2 mph - N/A   Clear
6:56 AM 77.0 °F - 70.9 °F 81% 29.91 in 8.0 mi SE 11.5 mph - N/A   Clear
7:56 AM 79.0 °F - 70.9 °F 76% 29.91 in 8.0 mi SE 16.1 mph - N/A   Clear
8:56 AM 81.9 °F 86.0 °F 70.9 °F 69% 29.93 in 9.0 mi SSE 16.1 mph 24.2 mph N/A   Clear
9:56 AM 86.9 °F 92.5 °F 70.9 °F 59% 29.92 in 10.0 mi SSE 17.3 mph - N/A   Partly Cloudy
10:56 AM 88.9 °F 93.8 °F 70.0 °F 53% 29.93 in 10.0 mi SSE 17.3 mph - N/A   Partly Cloudy
11:56 AM 88.9 °F 93.0 °F 68.9 °F 51% 29.91 in 10.0 mi SSE 18.4 mph 25.3 mph N/A   Partly Cloudy
12:56 PM 92.8 °F 97.1 °F 68.0 °F 44% 29.89 in 10.0 mi SSE 15.0 mph 27.6 mph N/A   Partly Cloudy
1:56 PM 97.9 °F 101.5 °F 65.8 °F 35% 29.88 in 10.0 mi SSE 23.0 mph 27.6 mph N/A   Clear
2:56 PM 97.9 °F 100.3 °F 63.9 °F 33% 29.85 in 10.0 mi SE 18.4 mph - N/A   Partly Cloudy
3:56 PM 99.0 °F 101.1 °F 63.9 °F 31% 29.83 in 10.0 mi SE 18.4 mph 26.5 mph N/A   Partly Cloudy
4:56 PM 100.9 °F 104.0 °F 63.9 °F 30% 29.82 in 10.0 mi SE 20.7 mph 26.5 mph N/A   Partly Cloudy
5:56 PM 99.9 °F 101.5 °F 61.9 °F 29% 29.80 in 10.0 mi SE 21.9 mph 25.3 mph N/A   Partly Cloudy
6:56 PM 97.9 °F 100.3 °F 63.9 °F 33% 29.80 in 10.0 mi SE 21.9 mph 27.6 mph N/A   Partly Cloudy
7:56 PM 95.9 °F 98.0 °F 63.9 °F 35% 29.81 in 10.0 mi SE 20.7 mph 28.8 mph N/A   Clear
8:56 PM 92.8 °F 94.3 °F 63.9 °F 38% 29.83 in 10.0 mi SE 18.4 mph - N/A   Clear
9:56 PM 90.0 °F 91.7 °F 64.9 °F 43% 29.86 in 10.0 mi SE 24.2 mph - N/A   Clear
10:56 PM 88.0 °F 89.6 °F 64.9 °F 46% 29.88 in 10.0 mi SE 24.2 mph 28.8 mph N/A   Clear
11:56 PM 84.9 °F 87.1 °F 65.8 °F 53% 29.91 in 10.0 mi SSE 21.9 mph 25.3 mph N/A   Unknown